Regional Weather Roundup
Issued by NWS

Home | Current Version | Previous Version | Text Only | Print | Product List | Glossary Off
Versions: 1 2 3 4 5 6 7 8 9 10 11 12 13 14 15 16 17 18 19 20 21 22 23 24 25 26 27 28 29 30 31 32 33 34 35 36 37 38 39 40 41 42 43 44 45 46 47 48 49 50

000
ASUS43 KLMK 140602
RWRKY
KENTUCKY REGIONAL WEATHER ROUNDUP
NATIONAL WEATHER SERVICE LOUISVILLE KY
100 AM EST THU DEC 14 2017

NOTE "FAIR" INDICATES FEW OR NO CLOUDS BELOW 12,000 FEET
WITH NO SIGNIFICANT WEATHER AND/OR OBSTRUCTIONS TO VISIBILITY.

KYZ001>023-026-027-061>063-070>075-140700-
WESTERN AND SOUTH CENTRAL KENTUCKY

CITY           SKY/WX    TMP DP  RH WIND       PRES   REMARKS
PADUCAH        PTCLDY    42  29  59 N9        29.83R
HENDERSON      CLOUDY    39  29  67 NW13      29.82R WCI  31
OWENSBORO      MOCLDY    38  29  70 NW15      29.80R WCI  29
HOPKINSVILLE   CLEAR     42  25  50 NW7       29.78R
BOWLING GREEN  CLEAR     40  25  55 SW5       29.77R
GLASGOW        NOT AVBL
$$

KYZ024-025-028>034-038-045-046-053-140700-
NORTH CENTRAL KENTUCKY

CITY           SKY/WX    TMP DP  RH WIND       PRES   REMARKS
LOUISVILLE/SDF CLOUDY    41  28  60 NW17G29   29.73R
LOUISVILLE/LOU CLOUDY    40  29  64 W16G32    29.72R WCI  31
FORT KNOX      CLOUDY    41  28  60 W18G25    29.71R
$$

KYZ035>037-039>044-047>052-055>060-089>105-140700-
NORTHEAST KENTUCKY

CITY           SKY/WX    TMP DP  RH WIND       PRES   REMARKS
LEXINGTON      CLOUDY    43  30  60 W21G29    29.65R
COVINGTON      CLOUDY    38  28  67 W26G35    29.62R WCI  26
FRANKFORT      CLOUDY    42  28  57 NW18G35   29.65R
$$

KYZ054-064>069-076>088-106>120-140700-
SOUTHEAST KENTUCKY

CITY           SKY/WX    TMP DP  RH WIND       PRES   REMARKS
JACKSON        MOCLDY    43  21  41 VRB6G24   29.62R
LONDON         CLOUDY    45  21  38 SW13      29.68S
SOMERSET       PTCLDY    43  23  45 W12G20    29.72S
MIDDLESBORO    NOT AVBL
MONTICELLO     PTCLDY    44  24  45 W22       29.73S
$$





USA.gov is the U.S. government's official web portal to all federal, state and local government web resources and services.